Wind_Speed
22 22 23 23 24 24 25 26 26 26 27 27 27 28 28 29 29 29 30 30 29 29 29 29 29 29 30 30 31 31 30 31 31 33 30 22 23 27 24 22 20 19 18 18 17 15 14 12 10 10 11 12 12 14 15 18 17 12 15 16 18 20 16 16 14 9 11 2 6 8 7 8 10 6 8 15 12 15 15 13 15 12 12 10 7 9 11 12
22 22 22 23 23 24 25 25 26 26 26 26 27 28 28 29 29 29 30 30 30 30 29 30 29 29 29 30 31 31 31 31 33 34 25 20 26 26 23 22 21 20 18 17 16 14 13 11 10 11 11 11 12 12 14 17 19 18 18 18 21 21 16 13 10 10 12 2 6 7 8 7 8 7 11 18 15 19 15 10 14 13 14 12 9 8 9 12
22 22 22 23 23 23 24 25 25 26 26 26 27 28 28 29 29 30 30 30 29 29 30 30 30 29 29 30 30 30 31 31 34 32 21 22 28 24 23 23 21 20 19 17 17 15 14 12 10 10 11 11 11 12 13 14 16 19 20 21 23 20 14 11 8 13 16 8 6 6 9 7 1 8 14 16 13 19 18 13 12 11 13 12 9 7 9 13
23 23 23 23 23 23 24 24 25 25 26 26 27 27 28 29 30 30 30 30 29 29 30 30 30 30 30 30 30 30 30 31 34 29 21 25 27 23 24 23 21 21 19 18 19 17 17 17 13 9 10 11 10 11 12 13 13 17 21 22 20 18 14 10 5 11 14 11 9 9 11 7 2 4 13 15 15 17 17 17 13 11 12 10 8 8 11 13
24 24 24 24 24 24 24 24 25 25 25 26 26 27 27 28 29 29 30 29 29 29 29 30 30 30 30 31 30 30 29 28 30 28 24 25 25 25 25 23 22 21 20 21 21 19 18 18 15 11 11 12 11 11 13 14 13 16 19 19 16 16 18 14 8 7 9 12 9 12 12 10 3 5 11 12 18 19 15 16 15 15 14 12 11 11 13 12
25 25 25 25 25 25 24 24 25 25 25 25 26 26 27 28 29 29 29 28 29 29 29 30 29 30 31 31 31 31 29 24 23 24 24 25 25 25 25 24 24 22 23 23 22 21 19 18 18 16 13 14 15 14 13 13 14 18 17 16 16 16 20 19 8 11 13 12 9 11 10 9 5 9 11 10 16 21 18 14 13 15 13 12 13 13 14 14
26 26 26 26 25 26 26 25 25 25 25 25 25 25 26 27 28 29 28 27 28 28 29 29 29 30 31 32 32 32 32 27 22 21 19 23 26 26 26 26 26 25 26 25 24 23 20 19 20 20 16 14 16 17 15 13 15 19 18 16 16 14 18 17 6 11 12 10 13 11 5 7 10 9 8 11 11 17 17 11 10 15 14 12 14 15 16 14
27 27 26 26 26 26 27 27 26 26 26 26 25 25 25 26 27 28 27 27 27 27 29 28 29 30 31 32 32 34 35 29 26 24 20 20 23 26 27 28 28 27 27 26 25 23 21 21 21 21 19 17 16 18 18 16 18 20 19 17 18 14 13 13 10 11 10 8 15 15 4 7 15 10 6 11 11 12 11 9 12 16 15 13 15 18 18 16
28 28 27 27 27 27 27 27 27 27 27 26 26 25 25 25 26 27 26 26 26 26 27 28 29 30 32 33 33 39 36 25 25 25 21 21 21 23 27 28 29 29 28 27 25 24 23 23 22 21 19 17 16 16 15 16 19 20 19 17 18 17 12 12 14 14 12 9 10 17 12 11 16 10 8 14 13 11 8 9 14 16 15 15 18 20 18 16
28 28 28 28 28 28 27 27 27 27 27 26 26 26 26 25 26 26 26 25 25 25 26 28 29 29 33 33 37 42 30 21 23 21 20 22 22 22 24 27 29 30 29 28 27 27 25 23 22 20 18 16 16 16 15 16 16 15 17 16 15 16 15 12 13 14 16 13 8 13 16 16 17 10 10 16 15 13 10 10 14 15 16 18 19 19 17 14
28 28 28 28 28 28 28 27 27 27 26 25 25 26 26 25 25 25 25 24 24 25 25 27 28 30 33 34 42 41 23 20 25 22 23 25 23 21 21 25 29 31 30 29 29 27 25 24 21 18 17 19 18 17 17 18 16 15 17 17 16 15 16 14 10 13 16 13 9 12 13 16 20 14 15 19 16 15 11 10 14 15 16 18 18 17 15 13
28 28 28 28 28 28 28 28 27 27 25 25 25 25 25 25 25 25 24 23 24 24 25 26 27 30 33 38 45 35 20 23 27 26 26 26 26 23 22 24 26 30 31 30 29 27 25 24 23 21 18 18 17 18 19 19 18 17 18 20 20 18 19 18 13 14 15 12 11 12 13 17 20 17 19 20 15 13 9 9 13 14 15 17 17 15 13 13
28 28 28 28 28 27 27 27 27 26 25 24 24 23 24 24 25 25 24 23 22 23 24 25 27 30 35 42 42 28 21 26 29 30 27 25 27 26 27 25 23 27 30 30 29 27 25 24 25 24 20 18 18 16 15 16 15 17 19 21 21 19 20 20 17 16 17 17 13 13 18 20 20 19 22 21 16 12 8 8 11 14 17 16 13 14 15 14
28 28 27 27 27 26 26 26 25 25 24 23 22 22 22 22 23 23 22 21 21 22 23 24 27 30 36 42 35 24 25 29 32 34 29 28 30 29 30 27 21 23 28 30 29 27 25 25 26 25 23 23 20 17 16 16 15 16 20 22 22 22 21 19 19 19 17 18 16 17 22 21 19 21 24 24 18 14 12 11 13 17 19 14 11 14 16 14
28 27 27 27 26 25 25 24 24 23 23 22 21 21 21 21 21 20 20 20 19 20 21 22 26 29 37 41 30 22 26 33 37 36 33 33 35 33 31 27 22 21 24 28 29 28 26 26 29 28 25 24 22 21 22 20 17 17 20 22 23 24 21 18 19 20 19 17 17 20 24 23 19 20 25 25 20 17 17 15 17 21 20 16 13 14 15 14
27 27 26 26 25 24 24 23 23 22 21 20 20 20 20 19 19 18 18 18 18 19 20 22 24 29 37 34 24 23 29 36 38 35 36 37 36 33 29 26 25 23 22 24 27 29 29 27 29 29 25 24 25 24 23 22 21 22 22 22 22 22 21 20 19 21 22 19 19 23 25 24 20 20 23 23 23 25 21 17 21 23 20 18 15 13 13 14
26 26 25 25 24 23 23 22 22 21 20 19 18 18 18 17 16 16 16 16 17 18 19 21 24 31 33 23 18 21 23 29 34 35 39 38 34 31 28 27 27 25 24 24 28 31 31 28 27 28 27 26 27 25 24 27 26 24 24 23 22 20 20 22 21 23 25 21 22 24 25 26 22 20 22 22 25 27 22 19 23 24 21 19 16 13 14 15
25 25 24 24 23 22 22 21 20 19 18 17 17 17 16 15 15 15 15 16 16 18 20 22 25 28 22 12 12 13 14 21 28 35 39 37 34 30 27 28 26 24 24 25 28 32 32 29 26 27 29 30 31 30 30 30 26 23 24 24 24 21 21 23 24 26 28 23 24 25 26 27 22 19 24 27 25 23 21 22 24 23 21 18 16 16 16 17
24 24 24 24 23 21 20 20 18 17 16 16 16 15 14 14 13 13 14 15 17 18 18 19 22 23 13 5 5 3 9 15 21 29 36 36 35 31 28 27 25 22 23 26 27 32 34 30 28 32 36 37 36 35 32 28 24 21 22 23 23 23 24 25 25 27 30 26 27 28 26 26 21 20 29 30 23 22 22 24 25 23 20 18 17 16 16 16
24 24 23 23 23 21 19 18 17 16 16 15 15 14 13 13 12 12 14 16 17 17 18 19 22 22 15 15 15 11 9 12 17 24 30 34 35 32 29 29 27 24 27 29 26 30 33 32 36 40 40 38 35 32 29 27 24 19 20 23 23 24 27 27 26 27 31 28 28 29 27 24 18 22 29 26 21 22 23 25 25 22 19 19 18 16 15 15
24 23 22 22 22 21 18 16 15 15 15 14 14 13 12 11 11 10 14 18 18 18 20 22 25 26 21 21 18 16 14 14 16 18 21 28 33 34 33 32 32 30 31 30 24 26 32 38 43 42 36 33 33 31 28 27 26 23 23 25 24 24 26 26 25 27 32 29 26 27 29 27 19 21 24 22 21 21 21 23 22 20 19 19 18 17 17 17
24 24 22 22 22 20 17 15 14 14 14 13 13 12 11 11 11 11 14 18 19 20 21 22 26 29 22 23 22 18 18 20 18 19 20 23 31 36 36 36 36 33 31 29 26 28 36 45 44 36 32 30 29 30 30 29 27 28 28 27 26 23 23 24 24 28 33 29 28 27 27 28 23 21 19 18 21 20 17 19 19 18 19 18 18 18 17 17
25 24 22 21 22 20 16 15 13 12 13 12 12 12 12 11 12 14 14 18 22 21 22 22 25 27 22 25 27 21 24 26 21 20 24 24 30 36 35 38 38 32 31 34 34 35 39 44 39 31 29 30 29 28 31 31 29 32 32 30 29 24 25 26 24 30 36 28 30 32 29 28 25 23 20 19 22 21 17 18 18 17 17 16 18 17 14 14
24 24 22 20 20 19 15 14 12 12 13 13 12 12 12 11 12 17 19 22 28 22 17 19 23 26 20 25 27 23 26 26 20 19 26 28 30 33 34 37 38 32 33 37 38 38 36 33 32 30 28 31 31 28 30 33 32 34 34 32 31 27 27 27 23 31 36 26 28 33 26 25 28 27 24 22 22 22 20 20 20 18 18 16 17 18 14 14
23 22 21 19 19 18 15 12 11 12 13 12 11 10 10 9 10 16 18 22 28 17 9 15 22 21 16 26 27 25 25 23 21 20 26 30 29 33 33 33 37 35 35 37 38 38 32 25 28 32 30 31 32 31 32 33 34 35 35 34 33 29 28 25 23 37 36 25 29 31 19 14 24 29 26 22 20 22 20 18 18 18 19 20 19 20 17 16
23 22 21 19 18 17 13 11 11 13 14 12 10 9 8 9 11 12 12 16 24 16 9 14 18 15 20 32 31 25 22 22 23 22 25 29 28 32 32 30 35 37 34 34 34 36 31 25 26 31 32 32 33 35 34 33 34 37 36 35 33 32 30 25 24 41 34 26 30 31 20 12 16 23 24 21 20 22 21 18 19 18 19 22 21 21 21 19
23 22 20 18 17 16 12 11 11 14 15 13 11 10 8 11 9 5 6 10 14 10 6 12 14 12 18 33 35 27 20 20 27 30 28 29 29 31 32 32 34 35 33 30 31 36 34 28 28 31 34 35 37 39 36 35 36 38 36 34 31 31 32 26 22 34 35 29 26 30 31 21 18 23 23 23 22 22 24 22 20 20 21 24 25 24 24 22
23 22 20 17 16 15 11 11 12 16 14 12 13 12 11 12 9 3 3 5 3 2 5 7 8 7 10 25 38 34 19 14 27 37 33 28 30 31 33 33 32 33 34 32 34 36 34 33 31 33 35 37 41 40 37 35 36 37 34 32 30 28 31 28 23 27 37 28 19 28 34 21 18 27 25 25 26 24 26 25 22 23 24 25 26 26 25 23
22 22 19 17 16 13 12 12 14 18 15 14 16 14 13 12 11 7 4 3 0 0 5 7 7 8 8 20 35 35 22 12 21 35 34 27 31 32 33 34 29 28 32 33 34 30 30 35 32 31 37 39 39 37 36 36 34 34 32 29 27 25 28 25 20 23 39 25 16 29 33 15 12 28 29 26 30 28 27 27 25 26 26 25 27 26 26 25
22 21 18 17 15 13 13 13 17 20 18 18 18 14 10 11 11 7 5 5 2 4 7 11 9 8 12 20 30 33 27 16 15 28 32 26 30 31 31 32 28 25 29 32 32 28 27 33 32 32 36 37 36 34 35 36 31 30 30 29 27 26 27 21 17 20 27 14 18 32 35 21 10 25 36 32 33 34 32 31 28 28 28 27 27 27 27 26
22 20 18 16 15 13 13 14 21 23 19 18 18 13 9 10 11 6 4 7 2 4 8 12 10 10 16 22 27 30 30 21 16 24 29 26 30 34 30 32 32 26 28 31 32 30 28 30 34 35 34 33 34 33 33 34 30 27 29 31 27 25 24 18 16 19 11 5 22 31 34 28 13 21 40 39 38 40 38 36 33 32 31 29 28 27 26 25
21 19 17 15 14 13 12 14 22 25 20 19 18 13 10 9 10 12 9 4 4 4 8 8 11 14 17 21 24 26 30 27 21 23 27 28 34 39 35 36 37 28 27 32 34 34 34 34 35 33 32 34 34 33 33 34 33 30 33 33 22 11 12 10 7 10 7 9 27 32 27 23 12 16 35 43 41 41 39 36 34 33 32 30 28 26 26 25
20 18 16 15 14 13 12 15 23 25 22 22 19 13 11 7 8 19 18 5 3 4 4 4 12 15 17 22 23 23 27 28 25 22 26 30 33 38 36 35 38 29 25 30 33 33 33 33 35 33 31 34 37 36 35 37 37 36 39 36 20 5 4 6 3 3 6 10 27 35 23 13 10 12 25 40 41 39 39 35 32 32 31 29 27 26 26 25
17 16 16 16 14 12 13 17 23 24 22 23 21 16 13 9 7 13 18 13 10 10 6 2 11 15 17 22 23 23 26 28 26 22 26 32 31 35 38 36 36 31 25 26 30 31 24 23 33 39 34 34 39 39 36 39 38 37 41 36 24 11 3 4 4 3 4 7 21 31 16 5 12 13 19 35 39 37 38 35 33 33 31 29 27 26 26 25
15 16 16 15 14 11 14 20 22 23 22 23 22 20 18 16 11 9 11 12 11 13 12 8 11 14 14 20 23 23 24 26 28 25 27 33 31 32 40 41 37 33 28 24 27 30 24 21 30 37 34 33 38 39 35 34 34 35 38 34 30 25 13 5 5 8 14 12 11 15 6 8 17 19 20 28 33 36 35 33 34 33 31 29 27 26 26 25
13 14 15 14 12 12 17 21 23 24 22 22 22 23 24 21 15 10 9 7 6 8 9 10 12 13 13 17 23 25 24 24 27 26 27 34 33 30 37 42 39 35 31 26 26 27 22 21 27 32 33 32 34 37 36 31 28 32 34 33 34 33 20 8 6 11 18 12 3 6 12 16 20 20 23 26 29 35 34 33 34 33 31 30 28 28 27 26
11 13 14 12 11 13 19 21 23 24 21 20 22 22 24 24 18 11 8 9 11 11 10 9 9 12 14 15 18 24 26 25 26 25 25 30 32 30 34 40 39 36 32 27 25 26 20 17 24 33 35 32 30 32 36 33 27 27 31 33 31 27 23 15 6 7 9 5 1 6 15 23 21 16 23 30 30 33 34 34 34 33 32 31 29 28 27 26
10 12 11 9 11 16 20 21 22 24 22 20 21 20 21 25 22 14 10 12 14 14 12 10 8 11 14 15 15 19 25 27 26 24 23 27 28 28 32 36 37 37 33 27 24 25 23 15 21 34 34 30 30 30 34 37 30 25 29 33 27 17 18 20 9 4 6 3 2 7 15 21 22 22 31 34 31 32 34 34 33 32 32 31 30 28 26 27
9 10 8 7 12 17 21 22 21 22 23 22 22 22 22 24 22 15 11 11 13 15 12 8 8 11 15 15 14 17 23 27 27 23 22 25 27 28 31 34 35 36 34 30 25 25 26 17 15 30 34 28 30 33 35 38 34 26 25 31 30 20 17 22 16 7 8 5 2 7 9 12 16 22 32 35 32 34 35 34 34 32 32 31 29 28 28 28
8 8 6 9 14 18 20 21 20 21 23 23 23 22 21 20 17 11 9 11 15 17 13 7 5 6 13 16 15 15 17 18 23 24 22 22 24 25 30 34 35 36 32 30 28 23 25 20 13 23 32 28 30 38 42 40 36 30 26 30 34 28 19 19 18 15 10 5 4 5 3 9 15 17 23 31 33 35 36 36 35 33 31 30 28 27 27 27
7 6 7 11 16 19 21 21 21 21 22 22 21 20 18 16 13 9 10 14 17 15 10 7 7 6 9 16 17 16 13 10 13 18 21 22 22 22 29 34 36 37 30 29 32 24 19 19 16 20 30 30 30 37 44 41 34 31 30 30 34 32 23 12 10 18 16 7 8 9 3 8 16 16 22 31 33 34 37 36 34 31 29 27 26 24 25 26
7 8 8 10 16 21 23 22 21 20 20 20 17 15 14 13 11 10 12 15 17 14 9 8 9 8 8 13 17 17 14 11 11 12 15 21 23 21 27 35 38 36 29 29 34 29 18 14 16 22 29 30 27 29 36 38 33 29 30 31 30 29 28 16 6 14 19 11 10 13 6 7 17 21 25 31 33 34 35 34 32 30 28 27 25 23 24 25
7 10 8 8 15 22 23 21 19 18 18 17 14 12 12 11 12 14 14 14 14 12 9 8 8 7 7 9 13 14 13 14 15 13 11 15 23 21 22 32 37 32 28 29 31 29 21 12 15 24 26 27 26 25 30 35 34 28 28 32 29 26 30 23 10 16 22 15 12 12 3 6 18 23 25 27 30 32 32 32 32 31 30 28 25 23 23 21
6 9 6 6 17 24 22 19 16 15 15 12 12 13 12 11 14 17 17 14 10 8 7 8 9 8 7 8 11 14 14 13 15 16 12 13 24 25 20 28 36 31 29 32 29 26 23 16 15 20 14 15 19 18 22 33 39 33 28 32 31 26 30 28 17 15 16 14 17 14 4 7 18 23 26 25 26 28 30 32 32 31 30 29 26 23 20 18
5 5 3 7 22 24 20 17 12 11 13 11 11 13 12 12 14 15 16 14 11 10 7 7 9 8 8 10 12 15 17 12 11 14 11 12 24 27 20 25 35 34 31 31 30 27 23 16 17 20 11 8 12 14 21 34 40 35 27 32 35 27 26 29 22 14 9 9 17 17 13 18 22 24 28 28 26 27 28 28 29 28 27 28 26 22 18 18
3 2 3 12 25 20 15 14 12 13 13 11 12 12 13 15 14 12 15 14 12 14 12 10 9 7 8 10 12 13 15 12 11 13 9 10 22 25 19 22 32 34 32 30 30 29 23 16 18 25 23 18 17 19 24 28 31 29 22 25 34 30 25 26 23 17 14 13 17 19 21 29 30 26 28 29 28 27 26 26 27 26 26 26 24 20 19 21
3 5 7 13 22 15 13 13 13 15 13 8 11 11 11 13 12 11 14 12 11 15 17 15 13 10 10 10 10 8 11 12 13 15 11 12 21 22 18 21 27 32 32 31 29 26 22 18 18 24 28 26 21 17 20 23 25 25 19 18 28 32 30 27 23 19 19 13 16 21 23 27 32 30 27 30 31 28 27 25 23 23 24 24 21 20 22 22
1 11 11 11 17 12 12 12 12 13 11 8 10 11 10 10 9 10 14 14 13 14 16 17 16 13 12 12 9 4 10 13 11 14 16 16 20 21 18 20 24 28 30 30 30 26 21 19 20 22 23 22 21 16 15 20 22 21 20 18 22 28 32 33 26 18 19 17 17 28 24 20 28 31 28 31 32 29 27 23 19 20 21 21 22 23 23 22
7 14 10 10 14 9 10 11 11 12 12 11 12 13 13 11 9 9 12 14 15 15 16 17 12 9 10 11 8 6 11 12 10 13 18 20 21 19 17 19 23 26 27 28 30 27 19 16 19 22 20 17 19 18 14 16 20 20 18 17 20 26 30 31 23 13 14 19 23 31 26 20 25 29 30 32 31 28 25 19 16 19 21 23 25 24 23 20
12 16 9 7 11 9 9 11 12 14 13 12 15 17 15 12 11 12 12 14 15 15 15 15 11 9 8 9 8 7 9 9 9 11 16 21 23 17 11 14 21 27 27 26 29 27 19 14 17 22 20 15 18 19 14 13 15 13 12 12 15 21 25 24 18 12 12 21 29 31 30 29 29 30 32 33 31 28 22 17 17 21 23 25 24 22 19 17
13 15 9 2 6 7 8 8 11 14 13 12 15 17 15 13 16 18 17 17 18 15 12 12 11 9 10 8 7 7 8 8 9 9 12 20 24 16 5 7 19 27 28 26 27 28 22 14 16 22 18 13 17 16 10 10 9 8 12 13 10 14 19 19 17 15 15 25 36 36 33 33 32 32 33 32 30 26 22 20 21 22 23 22 20 18 16 15
13 13 9 3 1 4 5 5 8 13 13 12 14 15 16 17 19 19 17 15 15 14 12 13 12 10 12 9 9 14 16 13 10 12 16 20 20 13 8 11 21 28 29 29 28 27 25 17 14 19 15 9 14 13 6 7 5 5 12 16 16 17 21 20 18 15 16 23 32 34 31 28 27 30 33 33 29 25 22 21 21 21 21 19 16 15 14 13
Wind_Direction
285 283 281 279 278 276 274 272 271 269 268 267 266 264 263 262 261 261 260 259 258 257 256 255 253 251 249 248 246 245 243 242 241 242 241 237 237 240 239 237 236 236 234 232 228 224 222 218 209 208 211 210 207 206 189 165 170 198 221 230 231 228 210 195 204 250 310 330 165 172 175 179 179 238 190 176 213 200 191 187 179 185 188 196 187 181 191 195
287 285 282 281 279 277 276 274 273 271 269 268 266 265 264 263 261 260 259 258 257 256 255 254 254 252 250 249 248 247 244 243 241 241 240 235 236 237 238 236 232 232 229 228 225 218 216 210 205 206 207 210 198 188 190 174 174 195 214 234 229 213 193 188 214 265 281 234 128 165 158 149 192 227 172 170 197 207 209 172 164 186 191 197 185 180 199 198
288 286 284 283 280 278 277 275 275 273 271 269 267 266 264 263 261 260 259 258 256 255 254 253 252 252 251 250 249 248 247 245 244 242 236 232 235 233 235 234 229 229 224 221 219 212 205 191 187 203 202 201 188 171 185 183 186 198 204 227 227 212 201 188 221 278 271 230 133 166 164 124 192 228 191 175 189 208 214 189 169 184 190 198 197 201 201 192
289 287 286 284 282 280 278 276 275 274 273 271 269 267 265 263 261 260 259 257 256 255 253 252 251 250 250 249 248 248 248 248 248 244 231 231 235 230 230 230 227 225 220 217 216 210 206 193 174 191 202 190 178 166 188 196 199 208 208 222 223 215 218 199 244 289 271 235 164 149 166 164 -0 225 200 196 195 203 218 216 213 219 209 209 212 206 196 191
290 288 287 285 284 282 280 278 276 275 273 272 270 268 267 265 263 261 259 258 257 255 254 252 250 249 248 248 247 246 246 249 251 245 230 227 231 228 226 226 225 220 215 215 213 210 212 204 176 184 207 186 184 186 197 203 204 216 222 237 232 217 227 232 271 303 274 255 180 148 166 185 230 180 181 208 210 200 212 228 228 232 229 229 229 208 196 195
290 289 288 286 285 283 281 279 278 276 274 273 271 270 268 266 265 263 261 259 257 255 253 252 250 248 247 246 245 244 241 242 247 245 232 225 226 225 223 221 221 216 213 213 212 209 210 207 179 182 210 193 193 202 201 205 213 222 227 245 243 230 238 235 269 309 275 252 190 170 183 187 186 180 192 234 226 204 209 228 221 224 228 222 219 204 194 192
291 290 288 286 285 284 282 281 279 278 276 275 273 271 270 268 267 265 263 260 257 255 253 250 249 248 247 245 243 243 238 233 237 240 231 225 223 222 221 219 218 214 213 212 211 210 206 206 185 176 204 209 198 200 201 208 221 232 232 239 243 250 254 235 254 303 265 220 188 180 205 206 166 160 226 259 236 209 212 223 217 218 214 199 201 196 188 186
290 290 288 287 285 283 282 281 280 279 278 276 274 273 271 269 267 266 264 262 258 255 252 250 247 246 245 244 242 241 237 229 232 234 229 227 222 219 220 218 217 214 214 212 211 212 206 206 192 174 196 217 209 199 196 208 220 230 238 241 238 241 254 245 250 271 265 232 199 188 202 201 164 148 246 246 227 215 210 208 205 206 199 189 191 190 188 189
290 289 289 287 285 283 282 281 280 279 278 278 277 275 273 271 268 267 265 262 260 255 253 250 246 244 243 242 241 241 235 226 231 234 229 230 226 219 219 218 218 215 214 212 210 211 208 206 195 177 189 211 220 210 197 216 228 228 239 251 247 232 223 243 252 252 263 272 223 207 218 199 171 166 228 231 221 205 189 175 181 190 189 185 189 190 194 199
290 289 288 287 286 285 283 282 281 279 278 278 278 277 275 273 269 268 266 263 260 256 253 249 246 243 242 240 240 240 233 218 227 229 222 225 228 223 218 217 217 217 214 211 210 210 208 206 194 179 189 204 218 223 211 221 233 236 248 258 264 241 212 230 254 247 250 265 247 212 223 215 194 185 202 216 221 211 198 175 173 178 178 180 187 191 196 201
291 289 288 287 286 285 284 283 282 281 280 279 278 277 276 274 271 269 266 263 260 256 253 249 245 243 242 240 239 239 226 213 218 216 214 216 220 221 218 216 215 216 214 210 210 209 209 206 190 180 201 208 208 221 225 225 227 240 249 249 262 257 230 230 241 237 240 247 227 205 224 220 206 201 190 197 207 204 191 172 172 174 178 182 185 188 193 197
291 290 288 287 286 285 285 284 283 282 282 281 279 277 275 274 272 269 266 264 261 257 254 249 245 242 242 240 240 237 218 214 216 212 213 212 214 217 216 214 213 214 213 211 211 208 208 205 190 184 201 210 208 219 228 227 227 234 237 240 252 258 245 233 223 231 234 231 214 203 224 217 208 204 186 183 191 196 185 171 179 183 186 181 181 194 196 198
292 290 289 288 287 285 285 284 284 283 282 282 280 277 274 271 270 269 268 266 263 259 254 250 246 244 243 243 242 235 213 212 214 209 206 207 210 213 217 213 207 212 211 211 210 207 206 203 195 187 191 208 218 224 221 220 230 234 231 239 248 246 240 230 222 226 227 231 219 202 222 221 210 202 188 181 185 198 185 177 212 210 196 187 192 209 204 202
293 291 290 288 287 286 286 285 283 282 282 281 279 277 272 268 268 269 269 267 263 258 253 250 247 245 246 246 244 233 214 209 212 206 197 200 203 208 218 212 203 207 208 209 207 205 204 202 199 191 193 207 214 222 221 224 237 235 230 236 241 237 235 230 222 219 222 229 213 202 224 224 212 207 197 189 190 200 176 175 220 206 196 207 203 204 207 210
293 293 291 289 288 287 287 286 284 282 281 280 277 273 269 268 268 268 267 264 261 256 251 248 246 246 249 249 245 231 216 210 212 206 195 198 204 211 217 208 202 203 202 207 205 202 201 200 202 197 197 204 209 221 228 234 238 229 230 234 231 229 230 231 224 217 216 217 203 204 219 219 214 207 197 192 189 190 177 184 210 195 193 211 199 198 211 215
292 293 292 291 290 288 287 286 285 283 281 278 273 269 267 266 266 265 263 260 257 253 248 244 243 245 248 251 248 231 221 216 212 207 199 201 210 219 219 202 197 199 194 200 202 201 198 198 204 203 200 203 211 223 232 240 237 224 228 234 227 222 223 228 226 214 210 209 202 204 213 213 211 205 199 194 189 192 192 195 206 201 200 205 203 207 212 213
292 293 293 293 291 289 287 286 284 282 280 275 268 264 262 263 262 261 260 255 252 249 245 242 241 245 249 255 254 237 229 225 217 209 207 209 214 222 221 205 195 197 194 196 200 198 195 196 203 208 207 208 212 219 230 237 234 222 222 228 226 221 219 226 229 212 204 205 199 205 218 212 205 212 207 190 185 195 201 204 207 206 202 201 203 206 211 218
291 292 293 293 292 290 287 285 283 281 278 270 261 258 258 257 256 256 255 251 248 243 241 241 240 247 255 258 253 240 225 227 220 213 213 214 215 218 222 211 194 195 201 201 202 197 194 195 200 211 213 212 211 214 223 227 226 221 219 220 224 224 222 228 230 209 198 198 197 208 221 210 207 220 202 184 187 197 205 212 211 205 203 204 206 207 215 219
288 290 292 293 292 291 287 284 283 280 272 261 254 253 252 253 253 253 253 249 246 241 241 247 246 247 241 142 121 166 196 210 210 212 215 216 215 213 216 211 191 190 205 207 206 200 194 192 198 210 214 212 209 211 220 221 217 220 220 217 219 223 223 228 231 211 197 195 196 207 220 218 219 211 186 175 185 199 207 212 205 199 203 208 210 210 212 212
286 287 289 292 292 291 288 285 283 277 264 253 248 247 246 248 247 246 247 245 243 240 238 243 252 246 207 145 116 115 151 189 196 202 210 215 216 211 210 203 186 187 204 207 208 200 193 195 203 209 213 211 207 209 217 217 211 213 220 218 216 223 224 225 231 215 198 196 195 201 216 223 213 189 175 168 181 200 208 207 201 199 203 207 207 203 203 209
283 285 287 289 292 291 289 286 279 269 258 247 242 241 240 242 243 246 251 247 238 237 236 233 245 245 207 167 149 145 160 188 194 192 201 210 212 210 207 195 183 189 202 204 206 199 195 203 209 209 211 210 208 211 211 209 213 217 222 220 214 222 226 224 230 215 195 193 196 198 211 217 199 176 170 169 186 205 211 205 197 195 197 202 208 206 207 213
280 283 285 287 289 290 289 284 274 263 252 240 236 235 232 235 238 246 263 264 251 242 238 228 233 242 219 181 169 166 181 189 185 189 203 210 207 207 204 193 187 192 197 198 200 199 202 209 211 208 208 207 209 215 209 204 215 224 229 232 224 223 229 233 233 209 187 187 196 196 204 213 205 188 175 173 191 200 204 200 191 194 200 203 211 215 218 216
276 281 283 284 285 289 288 282 272 256 241 228 228 227 226 234 235 242 261 276 273 259 251 239 228 238 228 186 174 179 187 183 174 186 205 211 206 204 201 195 192 191 195 196 197 200 207 212 209 203 205 205 206 213 209 204 216 225 230 239 237 231 229 236 234 200 181 183 195 195 202 211 205 194 183 181 187 181 174 179 181 195 207 208 210 210 215 215
271 277 280 280 282 286 286 281 268 243 227 218 223 226 229 237 236 244 254 269 277 274 264 255 236 237 220 176 179 188 183 178 171 183 206 210 204 199 199 198 194 191 198 200 198 203 211 212 203 199 203 203 203 207 207 209 217 223 229 235 238 235 230 237 229 192 179 182 193 194 198 200 192 185 178 176 180 174 168 172 175 185 198 208 210 203 208 217
267 271 274 277 279 283 284 277 258 233 217 208 218 225 231 238 234 245 258 273 283 282 251 242 234 231 192 169 185 188 181 184 170 174 205 209 203 197 195 198 197 194 200 202 201 207 213 212 200 198 202 201 202 204 206 210 217 225 229 229 229 227 231 239 206 176 176 186 192 190 181 168 175 175 168 167 172 175 177 179 179 184 195 205 208 206 211 218
262 265 268 273 275 279 281 269 246 220 206 196 198 201 220 240 236 248 268 281 290 289 249 235 228 212 179 179 186 180 190 201 170 167 202 206 202 200 192 195 201 199 200 201 205 210 211 208 203 200 201 202 203 208 208 207 217 227 223 219 226 226 232 244 195 170 176 187 188 190 182 151 161 169 169 171 172 178 184 186 187 185 191 198 201 206 214 220
258 260 264 268 270 276 274 255 231 207 200 195 185 183 213 242 238 251 275 269 289 300 240 231 224 204 186 183 178 177 199 204 175 172 188 195 197 199 194 193 201 202 199 198 206 212 207 202 203 201 200 202 206 209 207 203 214 223 214 214 230 231 231 245 216 181 177 178 181 191 190 174 166 172 178 183 178 183 190 188 189 183 181 189 195 204 214 223
254 257 260 261 265 272 264 241 214 194 193 194 188 185 199 225 226 202 252 250 293 32 172 203 208 202 199 185 180 183 187 186 188 180 174 185 193 195 198 195 199 203 197 198 208 210 205 200 202 201 199 203 208 209 203 202 214 219 216 221 230 235 235 246 247 199 177 173 171 181 187 180 174 177 183 192 189 189 195 192 191 191 187 191 195 202 213 223
250 253 255 255 260 266 253 228 196 183 181 178 188 190 186 208 219 203 233 247 31 130 182 177 183 184 191 189 188 191 183 169 199 187 172 182 192 194 201 196 197 205 199 203 211 210 205 202 202 202 203 205 207 208 204 203 215 219 220 226 228 241 240 244 261 197 174 177 166 168 180 178 174 184 184 190 190 187 192 192 194 199 199 200 201 205 213 222
244 248 250 251 253 257 243 212 183 183 180 170 183 189 179 200 204 186 217 227 27 34 171 183 194 183 176 186 192 197 192 172 188 189 179 184 190 195 203 195 194 205 204 208 213 212 209 204 203 206 208 208 205 208 207 205 213 217 219 225 234 249 242 247 263 195 170 183 177 169 180 178 172 192 191 192 194 195 195 194 199 207 208 209 209 209 212 219
242 244 247 247 246 248 236 205 186 185 178 173 180 177 177 196 189 180 217 222 263 54 153 182 196 183 176 184 192 198 197 187 184 189 188 191 192 194 198 197 200 208 210 212 211 211 211 205 206 210 209 208 205 206 209 205 207 213 218 224 236 250 242 248 252 206 176 204 188 179 184 187 183 194 198 200 202 207 209 208 211 213 213 214 211 208 208 214
241 243 246 245 242 241 228 203 192 187 182 185 183 170 182 195 195 212 219 221 255 197 160 180 193 187 183 184 191 197 200 200 196 193 193 193 192 194 196 197 202 207 208 208 207 209 214 208 204 208 207 204 203 204 206 207 208 211 217 222 228 240 225 227 238 200 194 206 195 189 188 191 189 185 195 200 200 206 213 218 222 221 219 217 212 211 211 214
239 242 245 241 240 235 217 198 194 192 190 192 190 181 189 199 214 222 218 213 282 221 164 178 191 194 192 188 193 200 201 204 202 198 194 189 190 196 199 200 202 206 206 204 203 205 215 213 204 204 205 199 201 203 200 203 208 207 212 216 212 189 176 195 179 174 213 202 189 193 195 184 169 163 182 193 196 202 208 216 224 226 223 219 215 216 216 217
237 240 244 240 238 232 211 198 194 193 191 191 195 193 198 218 225 223 227 238 267 274 292 257 189 195 200 195 196 197 201 206 206 204 194 189 194 198 200 202 203 206 208 204 204 203 209 214 202 201 202 196 200 204 200 200 204 205 211 215 213 215 208 168 167 162 174 155 173 190 205 163 152 151 172 187 191 196 202 209 218 223 222 218 217 218 219 220
237 239 243 239 237 227 206 199 195 193 190 189 195 196 203 220 218 216 238 246 258 267 281 276 215 205 208 204 199 197 203 207 205 206 198 196 202 198 198 202 200 203 208 205 206 206 210 216 203 200 204 198 198 204 202 200 203 207 211 214 218 225 226 187 193 174 152 140 158 175 154 114 143 151 171 185 186 189 197 206 215 221 219 216 219 219 219 222
236 240 241 238 236 220 203 198 195 192 188 184 193 204 212 217 210 214 240 260 293 289 283 268 231 223 226 212 201 196 199 203 204 210 203 200 207 203 201 205 202 202 209 207 206 203 206 214 203 198 204 201 198 201 201 199 201 205 209 213 216 222 226 207 168 157 149 142 139 120 111 127 139 146 169 181 184 187 193 203 213 218 216 217 221 220 221 226
239 244 244 239 229 210 199 196 194 197 195 188 195 211 220 219 209 213 257 296 317 315 302 278 231 222 229 220 206 195 193 199 209 215 206 201 208 206 203 207 206 206 206 205 207 201 200 207 198 196 201 201 199 197 200 203 201 202 207 212 214 219 230 227 181 137 141 125 119 132 136 150 153 152 169 177 182 186 192 202 209 212 214 219 222 223 226 230
248 252 250 236 217 202 195 194 192 198 206 206 210 218 222 221 214 218 263 299 307 303 297 285 246 218 214 213 209 195 191 199 209 216 206 200 206 204 202 206 208 208 205 205 211 204 202 207 194 197 205 203 195 192 200 204 204 208 210 207 207 211 223 220 208 152 149 119 89 145 154 170 177 175 176 181 187 191 196 203 206 209 214 219 222 226 231 234
257 257 250 215 203 195 192 194 191 195 206 215 223 224 221 221 217 221 255 288 296 294 294 287 253 217 200 201 208 201 197 201 207 214 208 199 203 206 204 206 208 208 204 208 217 207 202 209 195 195 204 201 191 195 206 206 207 215 210 202 208 219 217 209 210 195 157 131 122 150 165 199 204 191 186 188 193 196 200 206 208 211 215 220 225 228 231 233
261 252 220 190 192 190 189 193 192 195 206 216 225 226 225 226 224 235 272 279 278 279 279 287 288 231 203 203 209 210 208 206 206 215 215 202 200 203 205 208 208 205 202 207 218 215 204 212 210 189 189 186 186 197 207 210 211 212 203 199 207 218 217 204 209 210 182 132 132 143 156 207 209 209 201 198 198 199 204 208 210 211 214 220 225 228 230 229
251 227 193 180 184 185 184 188 193 198 208 218 225 229 228 225 226 252 277 267 268 275 272 286 311 292 234 215 215 219 223 223 215 221 222 207 197 195 199 205 205 202 206 210 214 216 205 206 213 192 185 186 187 194 203 209 212 209 207 206 206 210 209 191 199 209 198 180 165 160 147 180 185 193 201 202 202 201 205 209 210 209 212 219 223 225 225 221
224 204 186 177 181 184 182 183 191 202 215 220 224 232 228 223 237 266 270 261 270 282 280 281 285 282 262 228 219 223 230 234 230 234 230 209 202 199 195 199 201 202 210 210 207 210 205 195 199 195 197 200 196 197 206 211 212 211 217 217 211 211 206 189 177 196 195 200 167 150 139 161 171 182 194 202 204 202 204 208 210 211 216 221 222 219 217 214
224 202 180 170 181 184 181 182 192 207 218 221 227 230 220 224 251 267 270 270 276 276 261 257 261 265 271 240 223 224 234 239 227 227 246 222 209 210 199 194 199 205 209 203 200 205 208 205 190 186 198 208 204 207 214 213 213 219 225 220 215 215 206 199 204 195 196 202 162 130 88 163 170 182 193 201 206 206 206 209 214 217 219 223 223 217 212 207
227 209 203 188 184 182 179 181 194 214 224 229 237 230 217 234 255 260 270 279 280 268 243 240 256 260 250 232 222 215 220 238 227 217 245 240 210 209 206 194 197 205 205 200 200 199 202 212 190 171 181 206 203 210 211 207 215 227 229 220 217 216 206 206 214 199 202 205 166 139 96 160 174 186 192 198 206 208 209 212 216 220 220 221 221 216 210 202
224 230 273 184 178 179 181 181 189 223 237 242 244 235 232 254 260 256 264 273 274 266 250 241 251 258 241 222 216 208 206 225 236 222 240 239 210 208 210 199 199 204 204 203 203 198 199 212 193 173 172 192 195 206 201 199 210 223 225 216 212 210 202 206 214 201 186 174 156 145 133 144 164 182 188 195 203 204 206 210 214 219 220 219 218 214 207 201
205 301 8 164 174 182 191 191 199 214 219 230 240 234 236 256 264 258 258 266 264 250 238 233 232 247 261 229 202 198 198 209 237 237 238 222 209 211 215 206 204 205 203 202 200 200 205 213 200 190 191 193 198 208 206 203 209 217 220 208 206 211 208 207 216 211 183 144 137 154 156 151 163 181 187 195 206 206 204 206 209 214 218 219 216 209 200 197
189 358 27 157 177 195 208 209 215 211 204 221 245 239 240 256 263 260 257 260 259 242 233 239 244 254 262 218 180 187 201 207 234 240 228 204 205 214 216 208 206 203 200 197 196 200 207 209 206 201 198 201 206 207 208 213 215 219 223 204 200 214 219 218 227 220 195 157 131 156 168 160 167 183 190 195 206 211 208 209 210 211 214 214 207 198 194 192
6 3 26 151 181 203 213 213 219 221 223 242 252 250 256 259 246 250 260 261 262 252 243 253 259 254 241 201 167 187 213 211 228 228 216 207 208 215 213 205 205 201 194 189 188 193 200 200 200 198 197 205 211 210 214 220 221 225 228 215 206 215 220 226 234 223 207 209 175 163 168 169 172 182 192 196 203 210 211 211 211 207 205 200 192 189 190 190
7 5 30 155 187 203 203 206 218 230 241 254 262 266 269 263 245 254 265 258 258 257 255 261 254 230 225 212 194 200 206 214 231 220 217 219 216 213 209 204 202 197 187 179 180 186 192 194 192 193 196 200 201 206 213 215 218 224 226 226 224 222 224 228 232 222 216 218 189 167 163 168 175 183 191 196 202 209 208 206 201 194 186 181 182 184 187 188
3 4 24 159 194 210 205 212 226 231 231 239 253 265 273 275 273 274 266 253 259 262 256 254 239 205 209 225 224 205 196 218 235 217 220 223 211 201 208 205 191 186 183 180 182 186 191 191 189 196 205 203 200 211 215 203 208 211 211 225 231 224 226 229 226 219 193 173 167 166 162 162 175 187 191 195 203 206 200 191 185 180 175 175 180 183 184 183
4 6 17 120 196 219 224 235 240 235 226 223 241 259 272 274 272 272 265 253 256 259 244 238 238 209 187 206 234 226 222 241 236 214 212 210 199 189 200 194 178 179 184 186 186 189 192 187 182 193 204 208 212 224 228 211 212 194 182 186 186 195 205 206 205 214 200 167 161 164 164 164 176 189 193 197 200 197 189 185 184 181 177 179 181 181 179 178
7 18 28 39 124 216 236 258 245 234 229 225 235 247 251 253 257 264 268 259 249 248 241 238 241 206 176 195 232 233 241 249 227 202 196 194 191 179 151 159 172 178 185 187 185 187 191 186 177 187 190 192 215 220 179 156 174 164 157 148 144 170 185 178 170 183 202 193 177 170 169 171 178 187 193 195 193 187 183 186 191 189 183 180 176 174 174 174
Height
3074 3074 3073 3073 3073 3072 3072 3072 3072 3072 3072 3073 3073 3073 3073 3074 3074 3075 3075 3076 3078 3079 3080 3081 3082 3084 3085 3086 3087 3089 3090 3091 3092 3092 3095 3102 3102 3101 3104 3106 3108 3109 3111 3112 3113 3115 3116 3118 3119 3120 3122 3123 3125 3126 3127 3128 3130 3133 3135 3134 3134 3134 3133 3132 3134 3138 3140 3138 3137 3138 3139 3140 3141 3142 3145 3147 3144 3144 3143 3142 3144 3146 3148 3151 3152 3154 3154 3155
3071 3071 3071 3070 3070 3070 3070 3069 3069 3069 3069 3070 3070 3070 3070 3071 3071 3072 3072 3073 3075 3076 3077 3078 3079 3081 3082 3083 3084 3086 3087 3088 3088 3088 3096 3100 3098 3099 3103 3104 3106 3107 3109 3111 3112 3114 3115 3117 3118 3119 3121 3122 3124 3125 3126 3127 3128 3130 3132 3132 3132 3131 3130 3131 3135 3139 3139 3138 3137 3138 3139 3139 3141 3142 3144 3145 3142 3142 3143 3141 3144 3146 3148 3150 3152 3153 3154 3155
3069 3068 3068 3067 3067 3067 3067 3066 3066 3066 3066 3067 3067 3067 3067 3067 3068 3069 3069 3070 3072 3073 3074 3075 3076 3077 3078 3079 3081 3082 3084 3085 3084 3087 3096 3096 3094 3099 3101 3101 3104 3105 3108 3109 3111 3112 3114 3116 3117 3119 3120 3121 3122 3124 3125 3127 3128 3129 3130 3130 3129 3129 3130 3131 3135 3139 3139 3136 3136 3137 3138 3140 3141 3142 3143 3145 3142 3141 3142 3142 3144 3146 3148 3150 3151 3153 3153 3154
3066 3065 3065 3064 3064 3064 3064 3064 3063 3063 3064 3063 3064 3064 3064 3064 3064 3065 3066 3067 3069 3070 3071 3072 3073 3074 3075 3076 3077 3079 3080 3081 3081 3087 3093 3092 3092 3096 3097 3099 3102 3104 3106 3108 3109 3111 3112 3113 3115 3118 3119 3120 3121 3122 3124 3125 3127 3128 3128 3128 3127 3129 3130 3131 3135 3139 3137 3135 3135 3136 3138 3140 3141 3141 3142 3144 3143 3140 3141 3142 3145 3147 3148 3150 3151 3152 3153 3154
3063 3062 3062 3061 3061 3061 3060 3060 3060 3060 3060 3060 3060 3060 3061 3061 3061 3062 3063 3064 3066 3067 3068 3069 3070 3071 3072 3073 3074 3076 3078 3079 3079 3083 3088 3089 3090 3093 3095 3098 3100 3102 3104 3105 3107 3109 3111 3111 3112 3116 3117 3118 3120 3121 3122 3124 3126 3127 3127 3127 3127 3128 3129 3130 3134 3137 3136 3134 3135 3136 3138 3139 3140 3141 3141 3142 3142 3140 3139 3142 3146 3148 3149 3150 3151 3152 3152 3153
3060 3060 3059 3058 3058 3057 3057 3057 3057 3057 3057 3057 3057 3057 3058 3058 3058 3059 3060 3061 3062 3063 3064 3065 3067 3068 3068 3069 3071 3072 3075 3077 3077 3079 3084 3087 3088 3090 3093 3095 3097 3100 3101 3102 3105 3107 3109 3110 3111 3113 3116 3117 3118 3120 3121 3123 3126 3126 3127 3127 3126 3128 3128 3129 3132 3134 3133 3132 3134 3136 3136 3137 3139 3141 3140 3139 3140 3140 3139 3142 3145 3148 3149 3150 3151 3151 3152 3153
3057 3056 3056 3055 3055 3054 3054 3054 3054 3054 3053 3054 3054 3054 3054 3054 3055 3055 3057 3058 3059 3060 3061 3062 3064 3064 3065 3066 3067 3068 3070 3074 3074 3077 3081 3084 3085 3087 3090 3092 3094 3096 3098 3100 3103 3104 3107 3109 3109 3111 3115 3116 3117 3118 3120 3123 3125 3125 3126 3126 3125 3127 3128 3129 3131 3133 3131 3131 3133 3135 3136 3137 3139 3141 3139 3137 3139 3139 3140 3142 3144 3147 3148 3150 3151 3151 3152 3152
3054 3053 3052 3052 3052 3051 3051 3050 3050 3050 3050 3050 3050 3051 3051 3051 3052 3052 3054 3055 3056 3057 3057 3059 3060 3060 3061 3062 3064 3063 3065 3071 3073 3075 3079 3081 3083 3085 3087 3089 3091 3094 3096 3098 3101 3103 3106 3108 3108 3110 3113 3116 3117 3117 3118 3121 3124 3124 3124 3125 3124 3125 3127 3128 3130 3131 3130 3130 3132 3134 3135 3137 3139 3141 3139 3136 3137 3139 3141 3141 3144 3146 3147 3149 3150 3150 3151 3151
3051 3050 3049 3049 3048 3048 3047 3047 3047 3047 3047 3047 3047 3047 3048 3048 3048 3049 3050 3051 3052 3053 3054 3055 3055 3057 3057 3058 3059 3056 3061 3071 3072 3073 3078 3079 3081 3083 3084 3087 3089 3091 3094 3097 3100 3102 3103 3105 3107 3109 3112 3115 3117 3117 3118 3119 3120 3122 3124 3124 3123 3124 3125 3127 3129 3130 3129 3130 3132 3134 3135 3137 3138 3140 3139 3136 3136 3139 3141 3141 3144 3146 3146 3148 3149 3149 3150 3150
3047 3047 3046 3045 3045 3044 3044 3044 3043 3043 3044 3044 3044 3044 3044 3044 3045 3045 3046 3048 3049 3049 3050 3051 3052 3053 3052 3054 3053 3049 3061 3072 3070 3071 3075 3075 3078 3080 3082 3084 3086 3089 3091 3095 3097 3099 3101 3104 3107 3109 3112 3114 3115 3116 3117 3118 3119 3121 3123 3123 3123 3123 3124 3125 3127 3129 3128 3129 3132 3133 3134 3136 3138 3139 3139 3136 3135 3136 3139 3142 3144 3145 3145 3146 3148 3149 3150 3150
3044 3043 3042 3042 3041 3041 3041 3040 3040 3040 3040 3041 3041 3041 3041 3041 3041 3042 3043 3044 3045 3046 3047 3047 3048 3049 3048 3049 3045 3046 3063 3070 3066 3067 3069 3069 3072 3076 3080 3081 3084 3086 3089 3092 3094 3097 3100 3103 3106 3108 3110 3111 3113 3114 3115 3116 3118 3120 3121 3121 3121 3122 3123 3123 3125 3128 3128 3128 3131 3133 3134 3135 3137 3138 3138 3136 3134 3134 3137 3141 3143 3144 3145 3146 3148 3149 3150 3150
3040 3040 3039 3038 3038 3037 3037 3037 3037 3037 3037 3037 3037 3037 3037 3037 3038 3038 3039 3041 3042 3042 3043 3044 3044 3044 3044 3041 3038 3048 3064 3065 3063 3063 3064 3066 3067 3071 3076 3078 3081 3083 3086 3090 3092 3096 3099 3102 3105 3105 3108 3110 3111 3113 3113 3114 3116 3117 3119 3120 3120 3121 3121 3121 3124 3126 3128 3128 3130 3132 3133 3133 3134 3137 3138 3135 3132 3132 3135 3140 3143 3144 3145 3147 3148 3149 3150 3150
3037 3036 3036 3035 3034 3034 3034 3034 3034 3034 3034 3034 3034 3034 3034 3034 3034 3035 3036 3037 3038 3039 3040 3040 3040 3040 3038 3033 3036 3051 3060 3059 3059 3059 3060 3064 3065 3068 3072 3075 3079 3081 3084 3087 3091 3095 3097 3101 3102 3102 3105 3108 3110 3112 3112 3113 3115 3115 3116 3117 3118 3119 3119 3120 3123 3125 3126 3127 3129 3132 3130 3130 3132 3135 3138 3135 3131 3131 3133 3137 3141 3143 3145 3146 3148 3149 3149 3149
3033 3033 3032 3032 3031 3031 3031 3031 3030 3031 3031 3031 3031 3031 3030 3031 3031 3032 3033 3034 3035 3035 3036 3037 3036 3036 3032 3029 3038 3050 3054 3054 3054 3055 3058 3060 3063 3065 3067 3073 3077 3079 3082 3085 3089 3093 3095 3099 3101 3101 3102 3104 3107 3110 3111 3112 3113 3114 3114 3115 3115 3116 3117 3119 3122 3123 3125 3126 3128 3130 3129 3128 3131 3133 3136 3136 3132 3132 3132 3134 3137 3140 3144 3145 3147 3148 3149 3149
3030 3029 3029 3028 3028 3028 3028 3028 3027 3027 3028 3028 3028 3027 3027 3028 3028 3029 3030 3030 3032 3032 3033 3034 3033 3032 3027 3026 3038 3047 3049 3049 3047 3051 3056 3057 3061 3063 3065 3071 3075 3077 3080 3083 3087 3090 3093 3097 3098 3098 3099 3102 3104 3106 3107 3108 3110 3111 3111 3111 3112 3113 3115 3118 3120 3121 3123 3125 3126 3128 3127 3127 3130 3131 3134 3136 3133 3132 3132 3133 3135 3138 3142 3145 3146 3148 3148 3150
3027 3026 3026 3025 3025 3025 3025 3025 3025 3024 3025 3025 3025 3025 3025 3025 3026 3026 3027 3028 3028 3029 3030 3030 3029 3028 3024 3026 3036 3041 3042 3042 3045 3051 3053 3053 3059 3062 3065 3068 3072 3076 3078 3081 3085 3088 3091 3093 3095 3096 3098 3100 3101 3102 3104 3105 3106 3108 3108 3109 3110 3112 3114 3116 3117 3119 3121 3123 3124 3126 3125 3125 3128 3130 3132 3135 3132 3131 3132 3133 3135 3137 3141 3144 3146 3147 3148 3149
3024 3023 3023 3022 3022 3022 3022 3022 3022 3022 3022 3022 3022 3022 3022 3023 3023 3024 3024 3025 3025 3026 3027 3027 3026 3023 3023 3028 3034 3036 3039 3041 3045 3049 3049 3052 3057 3062 3064 3066 3069 3073 3075 3079 3081 3084 3088 3089 3091 3093 3095 3096 3097 3100 3101 3100 3101 3104 3106 3107 3109 3111 3113 3113 3114 3117 3119 3121 3123 3124 3124 3123 3126 3129 3131 3133 3130 3129 3132 3133 3134 3137 3140 3143 3145 3146 3147 3147
3021 3020 3020 3019 3019 3019 3019 3019 3019 3019 3019 3020 3020 3020 3020 3021 3021 3021 3022 3022 3023 3024 3024 3024 3023 3022 3025 3029 3031 3033 3036 3038 3042 3046 3047 3050 3055 3059 3062 3064 3067 3071 3074 3076 3078 3081 3084 3086 3089 3091 3091 3091 3092 3095 3095 3094 3098 3102 3104 3106 3108 3109 3110 3111 3111 3114 3117 3120 3121 3122 3122 3121 3125 3128 3130 3131 3129 3128 3132 3132 3133 3136 3139 3142 3144 3145 3145 3146
3018 3017 3017 3017 3017 3016 3016 3016 3016 3017 3017 3017 3017 3018 3019 3019 3019 3020 3020 3020 3020 3021 3022 3022 3020 3021 3025 3027 3028 3031 3033 3035 3038 3042 3045 3048 3052 3056 3060 3062 3065 3069 3072 3073 3074 3077 3080 3083 3085 3084 3082 3083 3086 3090 3092 3095 3099 3102 3103 3105 3106 3107 3108 3108 3109 3112 3115 3118 3119 3119 3120 3120 3124 3127 3128 3129 3128 3127 3130 3131 3132 3135 3138 3140 3141 3143 3145 3146
3014 3014 3014 3014 3014 3014 3014 3014 3014 3014 3014 3015 3016 3016 3017 3018 3018 3018 3017 3016 3016 3018 3019 3018 3016 3017 3022 3024 3024 3027 3030 3034 3035 3037 3042 3046 3049 3053 3057 3060 3062 3065 3067 3068 3071 3074 3078 3079 3076 3073 3076 3081 3086 3089 3093 3097 3099 3100 3102 3103 3104 3105 3105 3104 3107 3110 3113 3115 3116 3117 3119 3121 3125 3126 3127 3129 3128 3126 3129 3131 3132 3134 3136 3137 3139 3142 3144 3145
3012 3012 3012 3012 3011 3011 3012 3012 3012 3012 3012 3013 3014 3015 3016 3017 3017 3016 3014 3012 3013 3014 3014 3015 3014 3013 3018 3021 3021 3022 3025 3029 3032 3035 3039 3042 3046 3049 3052 3056 3057 3059 3062 3067 3071 3074 3076 3072 3067 3071 3078 3083 3087 3089 3093 3096 3097 3098 3099 3101 3102 3102 3102 3101 3104 3108 3110 3114 3115 3116 3119 3121 3125 3126 3126 3129 3128 3126 3128 3130 3131 3133 3133 3135 3138 3141 3143 3144
3009 3009 3009 3009 3009 3009 3010 3009 3009 3009 3010 3012 3013 3014 3015 3016 3016 3014 3012 3009 3010 3011 3011 3012 3012 3010 3015 3019 3019 3020 3021 3024 3028 3032 3036 3039 3041 3043 3047 3051 3052 3055 3060 3066 3068 3070 3068 3063 3064 3074 3080 3084 3087 3089 3091 3093 3094 3095 3096 3098 3099 3099 3100 3099 3102 3105 3107 3111 3112 3114 3117 3120 3124 3126 3127 3129 3128 3126 3128 3129 3130 3130 3131 3134 3137 3139 3141 3142
3007 3006 3006 3007 3006 3007 3007 3007 3007 3008 3009 3010 3012 3013 3014 3014 3015 3014 3012 3008 3007 3008 3008 3008 3009 3008 3012 3016 3017 3018 3018 3020 3024 3028 3033 3035 3037 3039 3044 3047 3049 3054 3059 3060 3061 3062 3060 3059 3067 3076 3079 3083 3085 3087 3090 3091 3091 3091 3092 3094 3095 3097 3097 3097 3100 3104 3105 3107 3109 3112 3115 3119 3122 3124 3126 3127 3126 3126 3128 3128 3128 3129 3130 3132 3136 3138 3140 3141
3004 3003 3004 3004 3004 3004 3005 3005 3006 3006 3007 3009 3011 3012 3013 3013 3014 3014 3011 3008 3005 3005 3005 3005 3006 3006 3008 3014 3016 3016 3017 3019 3020 3025 3030 3032 3034 3038 3042 3045 3048 3052 3055 3056 3058 3059 3058 3061 3069 3075 3077 3080 3082 3085 3087 3088 3088 3087 3089 3091 3092 3093 3094 3094 3098 3102 3105 3106 3107 3110 3114 3117 3119 3122 3125 3124 3124 3127 3127 3126 3127 3128 3129 3132 3135 3138 3140 3141
3001 3001 3001 3001 3002 3002 3003 3004 3004 3005 3006 3008 3009 3010 3012 3013 3013 3012 3011 3009 3004 3001 3001 3000 3001 3003 3006 3011 3013 3013 3016 3018 3018 3023 3029 3031 3033 3036 3040 3044 3047 3049 3051 3054 3056 3058 3060 3064 3068 3072 3074 3077 3080 3081 3083 3085 3086 3085 3085 3087 3089 3090 3090 3094 3097 3099 3102 3104 3104 3107 3111 3116 3117 3119 3122 3121 3121 3125 3126 3126 3127 3128 3130 3131 3134 3138 3139 3141
2997 2998 2998 2999 2999 2999 3001 3002 3002 3004 3005 3006 3006 3008 3011 3010 3011 3012 3011 3010 3003 2996 2996 2997 2997 3000 3002 3004 3008 3013 3015 3014 3016 3022 3027 3030 3032 3035 3039 3042 3045 3046 3049 3054 3057 3057 3060 3064 3066 3069 3072 3075 3077 3078 3079 3083 3084 3082 3081 3084 3087 3088 3087 3092 3097 3097 3097 3099 3101 3104 3108 3113 3116 3117 3119 3118 3118 3121 3123 3124 3126 3128 3130 3132 3134 3137 3138 3139
2994 2995 2995 2996 2997 2997 2999 2999 3000 3002 3003 3003 3004 3007 3009 3009 3010 3011 3012 3011 3003 2993 2992 2995 2996 2998 2999 3001 3006 3010 3012 3011 3013 3018 3023 3028 3031 3034 3037 3039 3041 3044 3048 3054 3054 3053 3056 3061 3063 3066 3069 3071 3072 3072 3075 3080 3081 3078 3079 3083 3086 3087 3085 3089 3097 3097 3095 3097 3100 3102 3104 3109 3113 3115 3117 3117 3116 3118 3120 3123 3125 3127 3129 3131 3133 3135 3136 3138
2991 2992 2992 2993 2994 2995 2996 2997 2999 3001 3002 3002 3003 3005 3007 3009 3010 3011 3012 3011 3001 2992 2992 2993 2995 2997 3000 3003 3005 3006 3009 3012 3013 3015 3020 3026 3030 3032 3034 3036 3039 3042 3046 3049 3048 3048 3054 3057 3059 3062 3065 3066 3066 3068 3073 3077 3077 3076 3079 3082 3084 3086 3086 3088 3094 3095 3094 3096 3097 3098 3102 3106 3110 3112 3114 3116 3115 3115 3118 3121 3124 3126 3128 3130 3131 3133 3135 3137
2988 2989 2989 2991 2992 2993 2994 2995 2997 2999 3000 3001 3002 3003 3005 3008 3009 3010 3013 3008 2996 2991 2993 2993 2995 2998 2999 3002 3004 3006 3009 3011 3014 3017 3020 3023 3027 3030 3031 3034 3039 3042 3045 3046 3046 3049 3053 3054 3057 3061 3061 3062 3064 3068 3072 3074 3075 3077 3079 3081 3082 3084 3085 3088 3092 3091 3090 3092 3093 3095 3098 3103 3109 3110 3111 3113 3112 3112 3116 3120 3123 3126 3128 3129 3131 3133 3135 3136
2984 2985 2986 2988 2989 2990 2991 2993 2995 2996 2997 2998 3000 3002 3004 3007 3007 3010 3011 3003 2993 2992 2994 2994 2996 2998 2999 3001 3004 3006 3009 3010 3013 3018 3020 3021 3026 3029 3032 3035 3039 3042 3045 3046 3047 3050 3052 3054 3057 3058 3058 3060 3065 3069 3071 3072 3075 3078 3079 3079 3080 3080 3082 3086 3089 3089 3088 3089 3090 3093 3095 3100 3106 3108 3108 3110 3109 3109 3113 3117 3121 3124 3126 3128 3130 3132 3133 3134
2981 2983 2984 2985 2987 2988 2989 2991 2993 2994 2996 2998 2999 3000 3002 3004 3006 3008 3005 2996 2992 2994 2995 2995 2997 2998 2999 3001 3003 3006 3008 3009 3011 3016 3019 3020 3023 3027 3030 3033 3035 3038 3042 3043 3045 3047 3050 3051 3052 3053 3056 3060 3064 3067 3069 3071 3075 3078 3077 3078 3079 3077 3079 3083 3086 3087 3087 3086 3087 3091 3094 3096 3101 3105 3105 3107 3107 3108 3111 3114 3118 3120 3122 3124 3127 3130 3131 3133
2979 2980 2982 2983 2984 2986 2987 2989 2991 2993 2995 2997 2998 2998 3000 3003 3004 3001 2996 2993 2994 2995 2995 2996 2998 2999 3000 3001 3003 3005 3007 3008 3009 3013 3017 3018 3020 3022 3024 3026 3028 3032 3035 3036 3040 3043 3045 3047 3048 3051 3054 3058 3061 3064 3067 3069 3072 3074 3074 3076 3077 3076 3077 3082 3083 3084 3084 3083 3084 3089 3093 3096 3098 3100 3102 3104 3105 3106 3109 3113 3116 3118 3119 3120 3123 3126 3129 3131
2976 2978 2980 2981 2982 2984 2985 2987 2989 2991 2993 2995 2997 2997 2999 3001 2998 2994 2993 2993 2994 2993 2994 2996 2997 2999 3001 3001 3002 3004 3006 3007 3007 3011 3016 3017 3019 3021 3023 3024 3026 3029 3030 3033 3037 3039 3041 3043 3046 3048 3051 3054 3057 3058 3060 3062 3065 3068 3068 3070 3073 3073 3076 3080 3081 3082 3082 3081 3084 3088 3092 3095 3097 3099 3100 3102 3103 3104 3108 3112 3115 3116 3117 3119 3121 3123 3126 3128
2974 2975 2977 2979 2980 2982 2984 2985 2987 2990 2991 2993 2994 2996 2997 2996 2993 2993 2994 2994 2994 2994 2994 2995 2995 2997 2999 3000 3002 3003 3005 3006 3006 3010 3014 3016 3017 3019 3021 3023 3024 3028 3030 3032 3035 3035 3037 3038 3039 3042 3045 3048 3052 3053 3055 3058 3061 3064 3065 3068 3070 3071 3073 3076 3077 3080 3082 3082 3084 3088 3091 3094 3096 3099 3099 3100 3101 3103 3107 3110 3113 3114 3116 3118 3120 3122 3124 3125
2972 2973 2975 2977 2978 2980 2982 2983 2986 2988 2990 2991 2992 2994 2993 2991 2991 2993 2994 2994 2995 2995 2995 2995 2995 2995 2996 2999 3001 3002 3004 3005 3005 3009 3013 3013 3014 3016 3017 3018 3020 3024 3028 3030 3031 3033 3035 3034 3035 3040 3043 3045 3049 3052 3055 3059 3061 3063 3065 3067 3067 3068 3072 3073 3075 3077 3079 3081 3085 3088 3091 3094 3095 3098 3099 3100 3101 3103 3106 3109 3111 3113 3115 3117 3119 3121 3122 3124
2970 2972 2973 2975 2977 2979 2980 2982 2984 2986 2988 2989 2991 2990 2988 2988 2991 2992 2993 2994 2994 2994 2994 2995 2995 2995 2995 2997 2999 3001 3003 3004 3005 3007 3010 3012 3013 3014 3016 3017 3018 3021 3024 3027 3029 3030 3032 3033 3035 3039 3041 3043 3046 3050 3054 3056 3058 3060 3062 3062 3063 3068 3072 3072 3074 3076 3076 3081 3087 3088 3091 3094 3096 3098 3099 3099 3101 3103 3105 3108 3110 3112 3114 3116 3118 3120 3121 3122
2969 2970 2971 2973 2975 2977 2978 2980 2983 2985 2986 2988 2988 2987 2987 2988 2990 2991 2992 2993 2993 2994 2994 2994 2995 2995 2994 2994 2997 2999 3001 3003 3004 3006 3008 3010 3011 3012 3014 3016 3018 3019 3021 3025 3027 3028 3030 3032 3034 3036 3038 3041 3045 3049 3053 3055 3056 3058 3058 3060 3064 3069 3071 3071 3073 3075 3075 3081 3088 3089 3090 3093 3094 3096 3098 3098 3100 3102 3104 3106 3108 3110 3112 3114 3117 3118 3120 3121
2968 2969 2970 2972 2973 2974 2976 2979 2981 2983 2986 2986 2986 2986 2986 2987 2988 2990 2992 2993 2993 2993 2994 2994 2994 2993 2994 2994 2996 2998 3001 3001 3002 3004 3006 3008 3008 3010 3013 3015 3017 3018 3020 3023 3026 3028 3030 3031 3033 3035 3037 3040 3045 3048 3050 3052 3054 3056 3057 3060 3064 3066 3067 3067 3070 3071 3073 3080 3088 3090 3091 3093 3091 3091 3091 3094 3097 3100 3103 3105 3107 3109 3111 3113 3115 3117 3118 3120
2967 2967 2969 2970 2971 2973 2975 2978 2980 2983 2984 2984 2984 2985 2985 2986 2988 2991 2992 2993 2993 2992 2992 2993 2993 2992 2993 2994 2995 2997 2999 3001 3002 3004 3005 3006 3006 3008 3011 3014 3016 3016 3018 3021 3025 3027 3029 3030 3030 3033 3036 3039 3042 3044 3045 3046 3050 3053 3056 3059 3061 3063 3064 3064 3066 3067 3070 3077 3086 3091 3093 3093 3092 3090 3089 3091 3095 3098 3101 3103 3105 3108 3110 3112 3114 3115 3116 3117
2966 2966 2968 2969 2970 2972 2975 2977 2980 2981 2982 2982 2983 2984 2985 2987 2989 2991 2992 2993 2993 2992 2992 2992 2992 2992 2992 2993 2994 2995 2996 2999 3001 3003 3003 3004 3005 3007 3009 3012 3014 3015 3017 3020 3023 3026 3028 3029 3029 3031 3034 3037 3038 3038 3039 3042 3046 3049 3052 3055 3058 3060 3062 3063 3064 3065 3067 3072 3080 3088 3092 3091 3090 3092 3092 3092 3095 3097 3099 3101 3103 3106 3108 3110 3112 3113 3114 3115
2965 2966 2967 2968 2969 2972 2975 2977 2978 2980 2980 2981 2982 2984 2986 2988 2989 2990 2992 2993 2992 2992 2992 2991 2991 2992 2992 2992 2993 2994 2995 2996 2998 3000 3001 3003 3004 3004 3006 3010 3012 3014 3017 3019 3022 3024 3025 3028 3029 3030 3030 3032 3035 3037 3038 3041 3044 3047 3050 3052 3055 3057 3059 3061 3063 3064 3065 3069 3073 3079 3086 3087 3087 3090 3092 3092 3094 3096 3098 3100 3102 3104 3106 3108 3110 3111 3112 3114
2964 2965 2966 2968 2970 2972 2974 2976 2977 2979 2980 2980 2982 2984 2986 2988 2989 2990 2991 2992 2991 2990 2990 2990 2990 2992 2992 2992 2993 2994 2995 2995 2995 2997 2998 3001 3002 3002 3004 3008 3010 3013 3016 3017 3020 3022 3024 3027 3030 3030 3030 3031 3035 3039 3040 3042 3045 3048 3050 3052 3054 3056 3057 3058 3061 3063 3065 3067 3069 3073 3079 3084 3086 3087 3090 3092 3093 3095 3097 3099 3101 3103 3105 3106 3107 3109 3111 3113
2964 2965 2966 2968 2970 2972 2974 2976 2978 2979 2979 2980 2983 2984 2985 2987 2988 2989 2990 2990 2990 2989 2990 2991 2991 2991 2991 2991 2992 2994 2995 2996 2995 2996 2997 3000 3002 3002 3004 3007 3009 3012 3015 3016 3018 3022 3024 3026 3028 3031 3033 3034 3037 3040 3041 3043 3046 3047 3048 3050 3052 3054 3055 3057 3060 3063 3064 3065 3067 3072 3079 3084 3085 3087 3090 3092 3094 3095 3097 3099 3100 3101 3103 3104 3106 3108 3110 3112
2965 2965 2967 2968 2970 2972 2974 2976 2978 2979 2979 2981 2983 2983 2985 2986 2987 2988 2989 2988 2989 2989 2989 2990 2991 2990 2991 2991 2992 2993 2995 2995 2995 2996 2997 2998 3000 3001 3003 3007 3009 3011 3012 3014 3017 3020 3023 3025 3026 3028 3032 3035 3037 3038 3039 3041 3043 3045 3046 3048 3051 3052 3054 3057 3060 3062 3063 3064 3064 3070 3079 3083 3084 3086 3090 3092 3094 3095 3096 3097 3098 3100 3102 3104 3105 3108 3110 3112
2966 2966 2967 2968 2970 2972 2974 2975 2978 2979 2980 2981 2982 2983 2984 2985 2985 2987 2987 2987 2988 2989 2989 2990 2989 2989 2990 2990 2991 2992 2994 2995 2996 2997 2997 2997 2999 3000 3002 3006 3008 3010 3012 3014 3018 3020 3023 3024 3024 3025 3027 3029 3030 3029 3030 3034 3038 3041 3044 3045 3048 3050 3052 3055 3058 3060 3062 3064 3064 3067 3075 3081 3083 3085 3088 3091 3092 3093 3094 3095 3097 3099 3101 3103 3105 3107 3109 3111
2967 2967 2968 2969 2972 2974 2975 2976 2978 2978 2979 2981 2981 2982 2983 2984 2985 2986 2987 2987 2987 2988 2989 2989 2989 2989 2989 2989 2990 2991 2993 2995 2996 2996 2996 2996 2998 2999 3001 3004 3007 3010 3013 3015 3017 3021 3023 3024 3024 3024 3025 3026 3027 3028 3030 3033 3037 3040 3042 3043 3046 3048 3051 3054 3056 3058 3060 3063 3065 3067 3070 3077 3081 3083 3087 3090 3090 3091 3092 3093 3095 3097 3100 3102 3104 3106 3108 3110
2968 2968 2969 2972 2974 2975 2976 2977 2978 2978 2980 2981 2981 2981 2982 2983 2984 2985 2985 2985 2986 2986 2987 2987 2988 2989 2988 2989 2990 2990 2991 2994 2994 2995 2996 2995 2996 2998 3000 3002 3005 3009 3012 3013 3016 3020 3023 3023 3024 3025 3027 3028 3030 3032 3034 3035 3037 3039 3041 3042 3045 3048 3050 3052 3055 3056 3058 3061 3066 3069 3069 3072 3078 3081 3084 3086 3087 3089 3090 3092 3094 3097 3099 3101 3103 3105 3107 3108
2970 2970 2970 2972 2974 2975 2976 2977 2978 2979 2981 2981 2981 2981 2981 2981 2982 2983 2984 2984 2984 2984 2985 2986 2987 2988 2988 2988 2989 2989 2991 2992 2993 2994 2996 2996 2996 2998 2999 3001 3003 3007 3010 3012 3015 3019 3021 3022 3023 3025 3028 3030 3032 3034 3035 3036 3037 3040 3042 3043 3045 3048 3049 3052 3054 3056 3057 3057 3061 3067 3069 3070 3074 3078 3081 3083 3085 3087 3089 3092 3094 3096 3098 3100 3102 3104 3106 3107
2971 2971 2971 2973 2974 2975 2976 2977 2979 2979 2980 2981 2981 2981 2981 2981 2980 2981 2982 2982 2982 2982 2983 2984 2985 2987 2988 2988 2988 2989 2989 2991 2992 2994 2996 2996 2997 2997 2998 3000 3002 3006 3009 3011 3014 3018 3020 3021 3023 3025 3027 3030 3033 3035 3035 3036 3037 3040 3043 3043 3045 3047 3048 3050 3052 3054 3056 3056 3057 3062 3067 3070 3073 3076 3079 3082 3084 3086 3089 3092 3094 3096 3098 3100 3101 3103 3105 3106
2972 2971 2972 2973 2975 2975 2976 2977 2978 2978 2979 2980 2980 2980 2980 2980 2980 2980 2980 2980 2980 2980 2981 2982 2984 2986 2987 2987 2987 2988 2989 2990 2992 2994 2996 2996 2996 2997 2998 2999 3001 3005 3009 3011 3014 3017 3019 3020 3022 3025 3027 3029 3032 3033 3034 3035 3037 3039 3040 3041 3043 3045 3047 3048 3050 3051 3054 3056 3057 3059 3063 3068 3073 3076 3079 3081 3083 3086 3090 3092 3094 3096 3097 3099 3101 3102 3104 3106
2973 2973 2973 2974 2975 2976 2976 2977 2977 2977 2978 2978 2979 2979 2979 2979 2979 2978 2978 2978 2978 2979 2980 2981 2982 2984 2985 2986 2986 2987 2988 2990 2992 2993 2995 2995 2996 2996 2997 2999 3001 3005 3008 3010 3013 3015 3017 3020 3022 3024 3027 3029 3030 3032 3033 3035 3037 3038 3040 3041 3043 3044 3045 3046 3047 3049 3052 3056 3058 3059 3060 3064 3070 3074 3077 3080 3083 3086 3090 3092 3093 3095 3097 3099 3100 3102 3104 3106
2974 2973 2973 2974 2975 2976 2976 2976 2976 2976 2976 2977 2977 2977 2977 2977 2977 2977 2976 2976 2977 2977 2978 2979 2981 2982 2983 2984 2986 2987 2987 2989 2990 2992 2993 2994 2995 2996 2996 2998 3002 3006 3009 3010 3012 3015 3017 3019 3022 3024 3026 3028 3029 3031 3033 3035 3037 3040 3040 3041 3042 3042 3042 3044 3046 3049 3052 3055 3057 3058 3059 3062 3067 3070 3074 3078 3083 3087 3089 3091 3093 3095 3096 3099 3101 3102 3104 3106